Location: Columbia
(38.9520°N, 92.3340°W)
Time: 03:11:45
(UTC-05:00)

Iridium 22 - Visible Passes

Search period start: 01 November 2014 00:00
Search period end: 10 November 2014 23:00
Orbit: 776 x 779 km, 86.4° (Epoch: 31 October)

Date Brightness Start Highest point End Pass type
(mag) Time Alt. Az. Time Alt. Az. Time Alt. Az.
01 Nov 5.5 05:57:14 10° N 06:02:29 89° W 06:07:40 10° S visible
01 Nov 7.0 18:53:00 10° SSW 18:57:53 40° W 19:02:47 10° NNW visible
02 Nov 6.4 04:23:51 10° N 04:28:54 48° E 04:33:54 10° SSE visible
02 Nov 6.9 06:05:46 10° NW 06:09:10 18° W 06:12:32 10° WSW visible
03 Nov 7.5 03:50:51 10° NNE 03:55:12 26° E 03:59:31 10° SE visible
03 Nov 6.1 05:31:18 10° NNW 05:35:54 32° W 05:40:28 10° SSW visible
03 Nov 8.4 18:28:53 10° WSW 18:31:53 15° WNW 18:34:54 10° NW visible
04 Nov 8.3 03:18:37 10° NE 03:21:22 14° ENE 03:24:05 10° ESE visible
04 Nov 5.5 04:57:23 10° N 05:02:31 61° W 05:07:37 10° SSW visible
04 Nov 7.7 17:53:38 10° SW 17:58:04 28° W 18:02:31 10° NNW visible
05 Nov 5.7 04:23:48 10° N 04:29:01 72° E 04:34:11 10° S visible
05 Nov 7.2 06:07:08 10° NW 06:09:00 12° WNW 06:10:53 10° W visible
06 Nov 6.8 03:50:33 10° NNE 03:55:23 38° E 04:00:11 10° SSE visible
06 Nov 6.6 05:31:51 10° NNW 05:35:49 23° W 05:39:47 10° SW visible
06 Nov 8.9 18:31:46 10° WNW 18:32:12 10° WNW 18:32:37 10° WNW visible
07 Nov 7.8 03:17:46 10° NNE 03:21:38 21° ENE 03:25:29 10° SE visible
07 Nov 5.8 04:57:38 10° NNW 05:02:31 41° W 05:07:22 10° SSW visible
07 Nov 8.3 17:54:35 10° WSW 17:58:17 20° WNW 18:02:01 10° NNW visible
08 Nov 6.4 04:31:13 37° S 04:31:13 37° S 04:34:16 10° S visible
08 Nov 7.3 17:19:46 10° SSW 17:24:31 36° W 17:29:18 10° NNW visible
09 Nov 7.8 03:59:52 14° SSE 03:59:52 14° SSE 04:00:37 10° SSE visible
10 Nov 8.5 17:56:05 10° WSW 17:58:34 13° WNW 18:01:03 10° NW visible
